World > North America > United States > Nevada

Luning, Nevada Regional Weather

Lat: 38.51N, Lon: 118.18W
Wx Zone: NVZ001
Feedback

Luning, NV Regional Weather

Expires:201910181100;;887163
ASUS45 KREV 181010
RWRNV 
NEVADA REGIONAL WEATHER ROUNDUP
NATIONAL WEATHER SERVICE RENO NV
300 AM PDT FRI OCT 18 2019

NOTE: "FAIR" INDICATES FEW OR NO CLOUDS BELOW 12,000 FEET WITH NO
SIGNIFICANT WEATHER AND/OR OBSTRUCTIONS TO VISIBILITY.


NVZ001-003-004-181100-
WESTERN NEVADA
  
CITY           SKY/WX    TMP DP  RH WIND       PRES   REMARKS
RENO           CLEAR     39  26  59 CALM      30.07R                  
CARSON CITY    FAIR      36  25  64 NW3       30.06R                  
SLIDE MTN        N/A     28  14  54 N8          N/A                   
PYRAMID LAKE     N/A     45 N/A N/A SW5         N/A                   
FALLON         CLEAR     33  22  63 S6        30.03S                  
LOVELOCK       CLEAR     32  19  58 NE6       30.03R                  
HAWTHORNE      CLEAR     45  27  49 W5        30.05S                  
$$


SKY/WX - Weather  TMP - Temperature  DP - Dew Point  RH - Relative Humidity
WIND - Wind Direction/Speed PRES - Barometric Pressure VSB - Visibility
WCI - Wind Chill Index E13G22 Wind - East Wind 13 mph/Gusts of 22 mph